This demonstration page uses our WeatherBlox Daily Observations layout. Learn more.

Left ArrowRight Arrow

Hourly Observations for January 25, 2017

Temp ( °F °C ) Dew Point ( °F °C ) Humidity (%) Winds ( mph kmh ) Pressure ( in mb ) Visibility ( mi km ) Precip ( " mm )
12:53 am 00:53 Clear 42 5.6 19 -7.2 40 40 NNW 8 13 29.83 1010 10 16 0.00 0.00
1:53 am 01:53 Clear 39 3.9 21 -6.1 48 48 W 9 15 29.84 1010 10 16 0.00 0.00
2:53 am 02:53 Cloudy 42 5.6 22 -5.6 45 45 W 5 7 29.84 1011 10 16 0.00 0.00
3:53 am 03:53 Cloudy 45 7.2 23 -5 42 42 WNW 3 6 29.85 1011 10 16 0.00 0.00
4:53 am 04:53 Cloudy 43 6.1 26 -3.3 51 51 NE 5 7 29.86 1011 10 16 0.00 0.00
5:53 am 05:53 Cloudy 46 7.8 23 -5 40 40 NW 9 15 29.87 1012 10 16 0.00 0.00
6:53 am 06:53 Cloudy 46 7.8 21 -6.1 37 37 WNW 9 15 29.92 1013 10 16 0.00 0.00
7:53 am 07:53 Cloudy 47 8.3 20 -6.7 34 34 NW 9 15 29.94 1014 10 16 0.00 0.00
8:53 am 08:53 Cloudy 48 8.9 23 -5 37 37 W 12 19 29.97 1015 10 16 0.00 0.00
9:53 am 09:53 Cloudy 47 8.3 25 -3.9 42 42 WSW 14 22 29.99 1016 10 16 0.00 0.00
10:53 am 10:53 Cloudy 48 8.9 27 -2.8 44 44 WSW 18 30 30.00 1016 10 16 0.00 0.00
11:53 am 11:53 Cloudy 51 10.6 21 -6.1 31 31 WNW 17 28 30.00 1016 10 16 0.00 0.00
12:53 pm 12:53 Mostly Cloudy 53 11.7 13 -10.6 20 20 W 9 15 29.98 1015 10 16 0.00 0.00
1:53 pm 13:53 Mostly Cloudy 53 11.7 10 -12.2 18 18 NW 13 20 29.97 1015 10 16 0.00 0.00
2:53 pm 14:53 Sunny 55 12.8 11 -11.7 17 17 W 13 20 29.95 1014 10 16 0.00 0.00
3:53 pm 15:53 Sunny 58 14.4 5 -15 12 12 W 15 24 29.93 1014 10 16 0.00 0.00
4:53 pm 16:53 Sunny 58 14.4 -1 -18.3 9 9 WNW 24 39 29.95 1014 10 16 0.00 0.00
5:53 pm 17:53 Sunny 55 12.8 2 -16.7 11 11 WNW 15 24 29.97 1015 10 16 0.00 0.00
6:53 pm 18:53 Clear 50 10 3 -16.1 14 14 WNW 14 22 30.01 1016 10 16 0.00 0.00
7:53 pm 19:53 Clear 48 8.9 4 -15.6 16 16 WNW 15 24 30.04 1017 10 16 0.00 0.00
8:53 pm 20:53 Clear 42 5.6 8 -13.3 24 24 WNW 7 11 30.08 1019 10 16 0.00 0.00
9:53 pm 21:53 Clear 36 2.2 11 -11.7 35 35 N 9 15 30.12 1020 10 16 0.00 0.00
10:53 pm 22:53 Clear 34 1.1 12 -11.1 40 40 NNE 8 13 30.15 1021 10 16 0.00 0.00
11:53 pm 23:53 Clear 32 0 14 -10 47 47 N 7 11 30.16 1021 10 16 0.00 0.00

Powered by AerisWeather